Location: Bambrugge
(50.9212°N, 3.9299°E)
Time: 23:34:11
(UTC+00:00)

Helios 1A Rocket - Pass Details

Date: 22 August 2024
Orbit: 512 x 533 km, 98.3° (Epoch: 07 September)

Event Time Altitude Azimuth Distance (km) Brightness Sun altitude
Exits shadow 00:07:59 20° 70° (ENE) 1,305 4.9 -27.2°
Maximum altitude 00:08:24 20° 61° (ENE) 1,292 5.0 -27.2°
Drops below altitude 10° 00:11:15 10° 14° (NNE) 1,803 6.4 -27.2°
Sets 00:13:46 0° 357° (N) 2,695 7.6 -27.1°
